This is the latest recevied weather packets stored in our database for station/object K0QED. If no packets are shown the sender has not sent any weather packets the latest 10 day(s).
| Time | Temp. | Humidity | Pressure | Rain* | Wind** | Luminosity | Snow |
|---|---|---|---|---|---|---|---|
| 1777851416 | 16.11° C | 26% | 1016.5 hPa | 0 mm | - | 62 W/m² | - |
| 1777851112 | 16.11° C | 25% | 1016.4 hPa | 0 mm | - | 62 W/m² | - |
| 1777850808 | 16.11° C | 26% | 1016.5 hPa | 0 mm | - | 70 W/m² | - |
| 1777850506 | 16.11° C | 25% | 1016.5 hPa | 0 mm | - | 72 W/m² | - |
| 1777850204 | 16.11° C | 26% | 1016.5 hPa | 0 mm | - | 83 W/m² | - |
| 1777849900 | 16.67° C | 26% | 1016.4 hPa | 0 mm | - | 101 W/m² | - |
| 1777849597 | 16.67° C | 25% | 1016.5 hPa | 0 mm | - | 115 W/m² | - |
| 1777849294 | 16.11° C | 25% | 1016.6 hPa | 0 mm | - | 144 W/m² | - |
| 1777848991 | 16.11° C | 26% | 1016.5 hPa | 0 mm | - | 111 W/m² | - |
| 1777848691 | 16.11° C | 25% | 1016.7 hPa | 0 mm | - | 101 W/m² | - |
| 1777848389 | 16.11° C | 26% | 1016.6 hPa | 0 mm | - | 105 W/m² | - |
| 1777848087 | 16.11° C | 26% | 1016.7 hPa | 0 mm | - | 106 W/m² | - |
| 1777847785 | 16.67° C | 26% | 1016.9 hPa | 0 mm | - | 145 W/m² | - |
| 1777847480 | 16.67° C | 26% | 1016.9 hPa | 0 mm | - | 186 W/m² | - |
| 1777847178 | 17.22° C | 24% | 1017 hPa | 0 mm | - | 195 W/m² | - |
| 1777846875 | 17.22° C | 24% | 1016.9 hPa | 0 mm | - | 176 W/m² | - |
| 1777846574 | 17.22° C | 23% | 1016.9 hPa | 0 mm | - | 164 W/m² | - |
| 1777846270 | 17.78° C | 22% | 1017.1 hPa | 0 mm | - | 161 W/m² | - |
| 1777845967 | 18.33° C | 22% | 1016.9 hPa | 0 mm | - | 182 W/m² | - |
| 1777845664 | 18.33° C | 22% | 1017.5 hPa | 0 mm | - | 233 W/m² | - |
| 1777845361 | 17.78° C | 21% | 1017.1 hPa | 0 mm | - | 274 W/m² | - |
| 1777845058 | 17.78° C | 22% | 1017 hPa | 0 mm | - | 350 W/m² | - |
| 1777844756 | 18.33° C | 21% | 1017.5 hPa | 0 mm | - | 543 W/m² | - |
| 1777844452 | 20° C | 19% | 1017.5 hPa | 0 mm | - | 613 W/m² | - |
| 1777844151 | 18.33° C | 21% | 1017.5 hPa | 0 mm | - | 623 W/m² | - |
* Rain latest hour (hover to see other rain measurements)
** Current wind speed in m/s (hover to see current wind gust speed)